User: anonymous   Login
Location: Oshawa
(43.9000°N, 78.8670°W)
Time: 18:08:27
(UTC-04:00)
Language:

IDEFIX/ARIANE 42P - Orbit

View from above orbital plane
View from above orbital plane
View from above satellite
View from above satellite

Ground track
Ground track

The orbit data is extracted from the following two-line orbital elements,

1 27422U 02021B   15148.11537893  .00000068  00000-0  43007-4 0  9990
2 27422 098.2582 178.4146 0011190 306.4332 053.5819 14.29184614679392
Epoch (UTC): 28 May 2015 02:46:08
Eccentricity: 0.0011190
inclination: 98.2582°
perigee height: 786 km
apogee height: 802 km
right ascension of ascending node: 178.4146°
argument of perigee: 306.4332°
revolutions per day: 14.29184614
mean anomaly at epoch: 53.5819°
orbit number at epoch: 67939

The dashed part of the orbit path shows where the satellite is in the earth's shadow,  

DLR